FW4725 Weather Reports


Display with metric or nautical units.
time (UTC)temp
F
wind
direction
speed
MPH
gust
MPH
rain 1hr
in
rain 24hr
in
rain mn
in
humidity
%
barometer
mb
20210922012510 79 355 6.0 15.0 0.00 0.00 0.00 34 1021.4
20210922012010 79 11 8.0 13.0 0.00 0.00 0.00 34 1021.3
20210922011510 79 5 7.0 14.0 0.00 0.00 0.00 34 1021.2
20210922011012 79 29 9.0 14.0 0.00 0.00 0.00 34 1021.2
20210922010509 79 360 7.0 14.0 0.00 0.00 0.00 35 1021.1
20210922010017 79 5 8.0 14.0 0.00 0.00 0.00 35 1020.9
20210922005512 80 35 6.0 14.0 0.00 0.00 0.00 36 1020.8
20210922005007 80 17 7.0 12.0 0.00 0.00 0.00 36 1020.8
20210922004520 80 9 6.0 12.0 0.00 0.00 0.00 35 1020.8
20210922003506 81 17 7.0 14.0 0.00 0.00 0.00 35 1020.6
20210922003006 81 347 8.0 14.0 0.00 0.00 0.00 35 1020.4
20210922002505 81 360 7.0 13.0 0.00 0.00 0.00 34 1020.4
20210922002006 82 26 8.0 13.0 0.00 0.00 0.00 34 1020.3
20210922001525 82 26 7.0 10.0 0.00 0.00 0.00 33 1020.1
20210922001003 82 5 6.0 12.0 0.00 0.00 0.00 33 1020.1
20210922000503 83 355 7.0 16.0 0.00 0.00 0.00 32 1020.1
20210922000002 83 5 8.0 16.0 0.00 0.00 0.00 32 1020.0
20210921235501 83 15 10.0 17.0 0.00 0.00 0.00 32 1019.9
20210921234623 83 30 9.0 16.0 0.00 0.00 0.00 32 1019.7
20210921233608 84 11 10.0 22.0 0.00 0.00 0.00 31 1019.7
20210921233250 84 343 13.0 22.0 0.00 0.00 0.00 31 1019.5
20210921232606 84 32 13.0 21.0 0.00 0.00 0.00 31 1019.5
20210921232115 84 23 13.0 23.0 0.00 0.00 0.00 31 1019.5
20210921231639 85 36 11.0 21.0 0.00 0.00 0.00 31 1019.3
20210921231059 85 355 11.0 19.0 0.00 0.00 0.00 31 1019.2
20210921230600 85 5 7.0 23.0 0.00 0.00 0.00 31 1019.1
20210921230110 85 360 13.0 23.0 0.00 0.00 0.00 31 1019.0
20210921225615 86 327 10.0 21.0 0.00 0.00 0.00 31 1019.0
20210921225100 86 339 10.0 17.0 0.00 0.00 0.00 31 1018.9
20210921224631 85 336 9.0 23.0 0.00 0.00 0.00 32 1018.8
20210921223601 86 348 8.0 23.0 0.00 0.00 0.00 32 1018.7
20210921223303 86 42 13.0 22.0 0.00 0.00 0.00 32 1018.6
20210921222556 86 333 12.0 22.0 0.00 0.00 0.00 32 1018.7
20210921222151 87 321 10.0 21.0 0.00 0.00 0.00 32 1018.7
20210921221635 87 327 13.0 20.0 0.00 0.00 0.00 32 1018.7
20210921221057 87 349 11.0 20.0 0.00 0.00 0.00 34 1018.5
20210921220559 87 355 12.0 21.0 0.00 0.00 0.00 35 1018.4
20210921220127 87 309 13.0 24.0 0.00 0.00 0.00 36 1018.3
20210921215554 86 360 13.0 24.0 0.00 0.00 0.00 37 1018.4
20210921215120 87 5 12.0 22.0 0.00 0.00 0.00 37 1018.3
20210921214639 87 355 13.0 23.0 0.00 0.00 0.00 37 1018.4
20210921213610 87 360 9.0 17.0 0.00 0.00 0.00 42 1018.2
20210921213057 87 335 6.0 12.0 0.00 0.00 0.00 41 1018.3
20210921212552 86 22 5.0 15.0 0.00 0.00 0.00 42 1018.2
20210921212110 87 5 10.0 15.0 0.00 0.00 0.00 41 1018.3
20210921211622 88 360 8.0 15.0 0.00 0.00 0.00 41 1018.3
20210921211058 87 331 6.0 12.0 0.00 0.00 0.00 41 1018.4
20210921210551 88 5 3.0 13.0 0.00 0.00 0.00 42 1018.5
20210921210135 87 5 3.0 13.0 0.00 0.00 0.00 43 1018.4
20210921205549 86 5 5.0 11.0 0.00 0.00 0.00 45 1018.4
20210921205049 86 360 6.0 11.0 0.00 0.00 0.00 44 1018.5
20210921204654 85 15 6.0 10.0 0.00 0.00 0.00 45 1018.4
20210921203113 85 355 5.0 10.0 0.00 0.00 0.00 46 1018.7
20210921202604 84 9 6.0 14.0 0.00 0.00 0.00 45 1018.7
20210921202142 84 339 8.0 15.0 0.00 0.00 0.00 46 1018.7
20210921201550 85 322 9.0 15.0 0.00 0.00 0.00 44 1018.5
20210921201048 85 40 7.0 13.0 0.00 0.00 0.00 45 1018.7
20210921200547 84 43 5.0 15.0 0.00 0.00 0.00 46 1018.7
20210921200059 83 317 5.0 15.0 0.00 0.00 0.00 48 1018.8
20210921195545 82 31 4.0 13.0 0.00 0.00 0.00 49 1019.0
20210921195045 83 355 8.0 13.0 0.00 0.00 0.00 49 1019.0
20210921194553 83 355 7.0 13.0 0.00 0.00 0.00 49 1018.9
20210921193606 81 343 7.0 13.0 0.00 0.00 0.00 51 1018.7
20210921193145 82 17 5.0 13.0 0.00 0.00 0.00 51 1018.6
20210921192557 82 349 5.0 13.0 0.00 0.00 0.00 51 1018.8
20210921192043 83 9 5.0 13.0 0.00 0.00 0.00 49 1018.8
20210921191635 83 323 6.0 12.0 0.00 0.00 0.00 49 1018.9
20210921191041 83 331 7.0 12.0 0.00 0.00 0.00 51 1019.0
20210921190554 82 5 7.0 12.0 0.00 0.00 0.00 52 1019.0
20210921190042 82 360 5.0 12.0 0.00 0.00 0.00 53 1019.1
20210921185548 81 360 6.0 12.0 0.00 0.00 0.00 54 1019.1
20210921185039 80 25 6.0 12.0 0.00 0.00 0.00 55 1019.3
20210921184605 79 319 6.0 13.0 0.00 0.00 0.00 57 1019.4
20210921183537 76 351 8.0 11.0 0.00 0.00 0.00 60 1019.2
20210921183039 76 360 6.0 14.0 0.00 0.00 0.00 60 1019.0
20210921182540 76 18 7.0 14.0 0.00 0.00 0.00 59 1019.2
20210921182042 76 22 8.0 15.0 0.00 0.00 0.00 59 1019.3
20210921181556 76 29 7.0 13.0 0.00 0.00 0.00 59 1019.5
20210921181040 76 360 7.0 13.0 0.00 0.00 0.00 59 1019.7
20210921180535 76 24 8.0 15.0 0.00 0.00 0.00 59 1019.7
20210921180118 76 355 9.0 13.0 0.00 0.00 0.00 59 1019.5
20210921175534 76 360 7.0 13.0 0.00 0.00 0.00 60 1019.6
20210921175039 76 5 5.0 12.0 0.00 0.00 0.00 61 1019.4
20210921174607 76 355 6.0 18.0 0.00 0.00 0.00 61 1019.5
20210921173533 76 9 9.0 15.0 0.00 0.00 0.00 61 1019.5
20210921173048 76 350 9.0 15.0 0.00 0.00 0.00 61 1019.6
20210921172531 77 11 9.0 19.0 0.00 0.00 0.00 63 1019.5
20210921172030 78 360 12.0 18.0 0.00 0.00 0.00 65 1019.6
20210921171546 79 343 11.0 16.0 0.00 0.00 0.00 66 1019.3
20210921171028 80 327 6.0 14.0 0.00 0.00 0.00 65 1019.0
20210921170529 79 311 9.0 14.0 0.00 0.00 0.00 66 1019.1
20210921170044 79 321 5.0 9.0 0.00 0.00 0.00 68 1019.0
20210921165526 79 328 4.0 10.0 0.00 0.00 0.00 69 1019.1
20210921165033 80 319 5.0 10.0 0.00 0.00 0.00 69 1018.9
20210921164540 80 317 5.0 9.0 0.00 0.00 0.00 68 1018.7
20210921163607 81 289 3.0 10.0 0.00 0.00 0.00 65 1018.6
20210921163048 81 292 5.0 10.0 0.00 0.00 0.00 64 1018.7
20210921162533 82 288 5.0 11.0 0.00 0.00 0.00 64 1018.7
20210921162035 82 319 4.0 11.0 0.00 0.00 0.00 64 1018.7
20210921161601 82 313 5.0 10.0 0.00 0.00 0.00 64 1018.5
20210921161024 82 317 2.0 7.0 0.00 0.00 0.00 64 1018.5
20210921160533 82 304 3.0 7.0 0.00 0.00 0.00 64 1018.5
20210921160036 82 275 2.0 7.0 0.00 0.00 0.00 63 1018.3
20210921155523 82 259 2.0 8.0 0.00 0.00 0.00 63 1018.3
20210921155022 82 265 4.0 10.0 0.00 0.00 0.00 62 1018.4
20210921154537 82 302 4.0 10.0 0.00 0.00 0.00 62 1018.3
20210921153520 83 269 5.0 10.0 0.00 0.00 0.00 62 1018.1
20210921153034 83 234 5.0 10.0 0.00 0.00 0.00 62 1018.1
20210921152519 83 265 6.0 13.0 0.00 0.00 0.00 62 1017.9
20210921152018 83 294 5.0 10.0 0.00 0.00 0.00 64 1018.0
20210921151521 83 240 5.0 12.0 0.00 0.00 0.00 64 1017.9
20210921151016 82 291 5.0 10.0 0.00 0.00 0.00 64 1017.9
20210921150525 82 252 8.0 10.0 0.00 0.00 0.00 64 1017.8
20210921150043 82 254 5.0 12.0 0.00 0.00 0.00 65 1017.7
20210921145520 82 240 7.0 12.0 0.00 0.00 0.00 65 1017.6
20210921145019 82 234 9.0 12.0 0.00 0.00 0.00 65 1017.4
20210921144523 82 236 6.0 10.0 0.00 0.00 0.00 65 1017.3
20210921143511 81 224 6.0 9.0 0.00 0.00 0.00 66 1017.1
20210921143017 81 227 6.0 9.0 0.00 0.00 0.00 66 1017.1
20210921142508 80 213 4.0 11.0 0.00 0.00 0.00 67 1017.2
20210921142012 80 230 6.0 9.0 0.00 0.00 0.00 67 1017.1
20210921141507 80 188 5.0 11.0 0.00 0.00 0.00 67 1017.1
20210921141011 80 238 7.0 11.0 0.00 0.00 0.00 67 1017.1
20210921140505 80 219 6.0 10.0 0.00 0.00 0.00 68 1017.1
20210921140005 80 239 6.0 10.0 0.00 0.00 0.00 68 1017.1
20210921135509 80 241 5.0 9.0 0.00 0.00 0.00 68 1017.2
20210921135004 79 236 3.0 7.0 0.00 0.00 0.00 69 1017.1
20210921134504 79 233 4.0 8.0 0.00 0.00 0.00 69 1017.1
20210921133504 79 186 3.0 7.0 0.00 0.00 0.00 70 1016.9
20210921133003 79 217 4.0 7.0 0.00 0.00 0.00 70 1016.9
20210921132501 79 207 4.0 6.0 0.00 0.00 0.00 71 1016.8
20210921131613 78 202 3.0 5.0 0.00 0.00 0.00 72 1016.7
20210921131058 78 219 3.0 5.0 0.00 0.00 0.00 72 1016.7
20210921130600 78 224 3.0 5.0 0.00 0.00 0.00 72 1016.7
20210921130121 77 235 3.0 5.0 0.00 0.00 0.00 72 1016.7
20210921125614 77 223 3.0 5.0 0.00 0.00 0.00 72 1016.6
20210921125109 77 244 2.0 5.0 0.00 0.00 0.00 73 1016.4
20210921124614 77 224 3.0 8.0 0.00 0.00 0.00 73 1016.2
20210921124055 77 238 4.0 8.0 0.00 0.00 0.00 73 1016.2
20210921123108 77 241 4.0 7.0 0.00 0.00 0.00 73 1015.8
20210921122551 77 234 3.0 8.0 0.00 0.00 0.00 73 1015.6
20210921122048 77 213 4.0 9.0 0.00 0.00 0.00 73 1015.4
20210921121602 77 169 5.0 10.0 0.00 0.00 0.00 73 1015.2
20210921121052 77 194 6.0 10.0 0.00 0.00 0.00 73 1015.0
20210921120544 77 184 5.0 12.0 0.00 0.00 0.00 73 1015.0
20210921120119 77 167 7.0 12.0 0.00 0.00 0.00 73 1014.8
20210921115541 77 165 7.0 12.0 0.00 0.00 0.00 73 1014.8
20210921115043 77 160 9.0 12.0 0.00 0.00 0.00 73 1014.8
20210921114553 77 165 5.0 9.0 0.00 0.00 0.00 73 1014.8
20210921114038 77 184 4.0 7.0 0.00 0.00 0.00 72 1015.0
20210921113037 77 184 2.0 6.0 0.00 0.00 0.00 72 1014.8
20210921112545 77 181 3.0 5.0 0.00 0.00 0.00 72 1014.8
20210921112036 77 191 3.0 7.0 0.00 0.00 0.00 72 1014.8
20210921111613 77 194 3.0 7.0 0.00 0.00 0.00 73 1014.7
20210921111033 77 194 2.0 5.0 0.00 0.00 0.00 72 1014.7
20210921110532 76 196 1.0 5.0 0.00 0.00 0.00 72 1014.7
20210921110103 76 184 2.0 5.0 0.00 0.00 0.00 72 1014.5
20210921105535 76 170 2.0 4.0 0.00 0.00 0.00 72 1014.4
20210921105042 76 181 2.0 6.0 0.00 0.00 0.00 72 1014.3
20210921104558 76 202 2.0 6.0 0.00 0.00 0.00 72 1014.2
20210921104029 76 214 3.0 8.0 0.00 0.00 0.00 72 1014.1
20210921103110 76 185 3.0 7.0 0.00 0.00 0.00 72 1014.0
20210921102529 76 178 4.0 7.0 0.00 0.00 0.00 72 1013.8
20210921102032 76 199 3.0 8.0 0.00 0.00 0.00 71 1013.7
20210921101530 76 196 4.0 8.0 0.00 0.00 0.00 71 1013.6
20210921101026 76 180 3.0 7.0 0.00 0.00 0.00 71 1013.7
20210921100524 77 179 4.0 7.0 0.00 0.00 0.00 71 1013.7
20210921100029 77 196 3.0 6.0 0.00 0.00 0.00 71 1013.6
20210921095524 77 192 3.0 8.0 0.00 0.00 0.00 70 1013.5
20210921095034 77 180 4.0 8.0 0.00 0.00 0.00 70 1013.5
20210921094559 77 182 5.0 7.0 0.00 0.00 0.00 70 1013.6
20210921094022 77 198 4.0 7.0 0.00 0.00 0.00 70 1013.5
20210921093033 77 188 3.0 5.0 0.00 0.00 0.00 69 1013.5
20210921092521 77 182 2.0 6.0 0.00 0.00 0.00 69 1013.4
20210921092030 77 194 3.0 7.0 0.00 0.00 0.00 69 1013.3
20210921091528 77 178 3.0 8.0 0.00 0.00 0.00 68 1013.3
20210921091023 77 173 3.0 8.0 0.00 0.00 0.00 68 1013.4
20210921090520 77 182 3.0 8.0 0.00 0.00 0.00 68 1013.0
20210921090027 78 190 5.0 9.0 0.00 0.00 0.00 68 1013.1
20210921085526 78 184 4.0 9.0 0.00 0.00 0.00 67 1013.1
20210921085020 78 180 5.0 10.0 0.00 0.00 0.00 67 1013.1
20210921084602 78 174 4.0 9.0 0.00 0.00 0.00 67 1013.1
20210921084023 78 194 6.0 10.0 0.00 0.00 0.00 67 1013.1
20210921083031 78 190 6.0 11.0 0.00 0.00 0.00 66 1012.9
20210921082517 78 181 6.0 11.0 0.00 0.00 0.00 66 1012.9
20210921082017 78 172 5.0 11.0 0.00 0.00 0.00 66 1012.9
20210921081517 78 190 5.0 9.0 0.00 0.00 0.00 66 1012.9
20210921081017 79 182 4.0 10.0 0.00 0.00 0.00 66 1012.9
20210921080517 79 175 5.0 10.0 0.00 0.00 0.00 66 1012.9
20210921080049 79 166 5.0 10.0 0.00 0.00 0.00 65 1012.8
20210921075518 79 181 5.0 8.0 0.00 0.00 0.00 65 1012.8
20210921075026 79 175 5.0 12.0 0.00 0.00 0.00 65 1012.8
20210921074534 79 182 7.0 12.0 0.00 0.00 0.00 65 1012.8
20210921074016 79 188 5.0 10.0 0.00 0.00 0.00 65 1012.8
20210921073021 79 175 4.0 8.0 0.00 0.00 0.00 65 1012.8
20210921072519 79 167 3.0 8.0 0.00 0.00 0.00 65 1012.8
20210921072019 79 153 4.0 7.0 0.00 0.00 0.00 64 1012.7
20210921071618 79 162 5.0 8.0 0.00 0.00 0.00 64 1012.6
20210921071017 79 159 5.0 8.0 0.00 0.00 0.00 64 1012.7
20210921070522 79 164 5.0 8.0 0.00 0.00 0.00 64 1012.6
20210921070103 79 167 5.0 8.0 0.00 0.00 0.00 64 1012.6
20210921065531 79 178 5.0 8.0 0.00 0.00 0.00 63 1012.6
20210921065020 79 158 4.0 11.0 0.00 0.00 0.00 63 1012.6
20210921064542 80 155 6.0 10.0 0.00 0.00 0.00 63 1012.6
20210921064017 80 161 5.0 9.0 0.00 0.00 0.00 63 1012.6
20210921063020 80 174 5.0 10.0 0.00 0.00 0.00 62 1012.7
20210921062523 80 172 6.0 11.0 0.00 0.00 0.00 62 1012.6
20210921062034 80 149 5.0 9.0 0.00 0.00 0.00 62 1012.6
20210921061524 80 169 5.0 10.0 0.00 0.00 0.00 62 1012.6
20210921061016 80 165 5.0 10.0 0.00 0.00 0.00 62 1012.7
20210921060515 80 161 5.0 10.0 0.00 0.00 0.00 62 1012.7
20210921060029 80 168 5.0 10.0 0.00 0.00 0.00 61 1012.5
20210921055515 80 155 6.0 10.0 0.00 0.00 0.00 61 1012.6
20210921055014 80 167 7.0 10.0 0.00 0.00 0.00 62 1012.5
20210921054526 80 164 6.0 9.0 0.00 0.00 0.00 62 1012.6
20210921054015 80 156 4.0 8.0 0.00 0.00 0.00 62 1012.7
20210921053016 80 161 4.0 9.0 0.00 0.00 0.00 62 1012.6
20210921052521 79 148 5.0 9.0 0.00 0.00 0.00 62 1012.6
20210921052014 80 150 5.0 8.0 0.00 0.00 0.00 62 1012.5
20210921051536 80 153 4.0 8.0 0.00 0.00 0.00 61 1012.5
20210921051033 80 150 5.0 8.0 0.00 0.00 0.00 61 1012.5
20210921050518 80 156 4.0 7.0 0.00 0.00 0.00 61 1012.5
20210921050021 80 142 4.0 7.0 0.00 0.00 0.00 61 1012.6
20210921045513 80 154 4.0 8.0 0.00 0.00 0.00 60 1012.5
20210921045019 80 146 4.0 8.0 0.00 0.00 0.00 59 1012.5
20210921044516 81 143 4.0 7.0 0.00 0.00 0.00 59 1012.4
20210921044019 81 157 3.0 6.0 0.00 0.00 0.00 59 1012.4
20210921043025 82 121 3.0 8.0 0.00 0.00 0.00 56 1012.2
20210921042514 82 118 4.0 7.0 0.00 0.00 0.00 56 1012.1
20210921042015 82 121 3.0 8.0 0.00 0.00 0.00 56 1012.1
20210921041537 83 142 2.0 8.0 0.00 0.00 0.00 55 1012.0
20210921041018 83 170 5.0 8.0 0.00 0.00 0.00 55 1012.0
20210921040513 83 164 4.0 7.0 0.00 0.00 0.00 54 1012.0
20210921040022 83 162 4.0 8.0 0.00 0.00 0.00 54 1011.9
20210921035526 83 167 5.0 10.0 0.00 0.00 0.00 54 1012.0
20210921035013 83 147 6.0 10.0 0.00 0.00 0.00 53 1011.9
20210921034513 83 157 5.0 8.0 0.00 0.00 0.00 53 1011.8
20210921034012 84 150 4.0 8.0 0.00 0.00 0.00 53 1011.8
20210921033042 84 151 5.0 8.0 0.00 0.00 0.00 53 1011.7
20210921032513 84 167 4.0 9.0 0.00 0.00 0.00 52 1011.7
20210921032014 84 165 5.0 9.0 0.00 0.00 0.00 52 1011.7
20210921031511 84 142 5.0 10.0 0.00 0.00 0.00 52 1011.7
20210921031011 84 146 6.0 9.0 0.00 0.00 0.00 52 1011.8
20210921030511 84 170 4.0 7.0 0.00 0.00 0.00 52 1011.7
20210921030011 84 162 4.0 7.0 0.00 0.00 0.00 51 1011.7
20210921025523 84 161 4.0 7.0 0.00 0.00 0.00 51 1011.6
20210921025010 85 153 4.0 8.0 0.00 0.00 0.00 51 1011.4
20210921024522 85 155 3.0 10.0 0.00 0.00 0.00 50 1011.4
20210921024011 85 156 4.0 10.0 0.00 0.00 0.00 50 1011.3
20210921023012 85 144 6.0 9.0 0.00 0.00 0.00 50 1011.3
20210921022513 86 156 5.0 10.0 0.00 0.00 0.00 49 1011.1
20210921022010 86 150 7.0 11.0 0.00 0.00 0.00 49 1011.1
20210921021514 86 153 6.0 10.0 0.00 0.00 0.00 49 1011.0
20210921021014 86 152 6.0 10.0 0.00 0.00 0.00 49 1011.0
20210921020515 86 150 7.0 11.0 0.00 0.00 0.00 49 1010.8
20210921020015 86 150 6.0 11.0 0.00 0.00 0.00 48 1010.8
20210921015510 86 146 6.0 12.0 0.00 0.00 0.00 48 1010.7
20210921015009 86 146 8.0 12.0 0.00 0.00 0.00 48 1010.7
20210921014520 87 146 7.0 11.0 0.00 0.00 0.00 48 1010.6
20210921014022 87 165 6.0 11.0 0.00 0.00 0.00 48 1010.5
20210921013016 87 148 6.0 11.0 0.00 0.00 0.00 47 1010.4